| time (UTC) | temp F | wind direction | speed knots | gust knots | rain 1hr in | rain 24hr in | rain mn in | humidity % | barometer mb |
| 20260504040056 | 66 | 0 | 0.0 | 1.7 | 0.00 | 0.00 | 0.00 | 65 | 1017.2 |
| 20260504034552 | 66 | 0 | 0.0 | 1.7 | 0.00 | 0.00 | 0.00 | 64 | 1017.2 |
| 20260504033102 | 67 | 191 | 0.0 | 2.6 | 0.00 | 0.00 | 0.00 | 63 | 1017.1 |
| 20260504031554 | 67 | 0 | 0.0 | 1.7 | 0.00 | 0.00 | 0.00 | 62 | 1017.0 |
| 20260504030058 | 68 | 0 | 0.0 | 0.9 | 0.00 | 0.00 | 0.00 | 62 | 1017.0 |
| 20260504024554 | 68 | 0 | 0.0 | 0.0 | 0.00 | 0.00 | 0.00 | 62 | 1016.8 |
| 20260504023055 | 69 | 0 | 0.0 | 0.0 | 0.00 | 0.00 | 0.00 | 63 | 1016.6 |
| 20260504021558 | 70 | 0 | 0.0 | 0.0 | 0.00 | 0.00 | 0.00 | 59 | 1016.6 |
| 20260504020128 | 70 | 0 | 0.0 | 0.0 | 0.00 | 0.00 | 0.00 | 59 | 1016.6 |
| 20260504014604 | 71 | 0 | 0.0 | 0.9 | 0.00 | 0.00 | 0.00 | 59 | 1016.4 |
| 20260504013105 | 72 | 0 | 0.0 | 0.0 | 0.00 | 0.00 | 0.00 | 58 | 1016.4 |
| 20260504011554 | 73 | 0 | 0.0 | 0.0 | 0.00 | 0.00 | 0.00 | 57 | 1016.3 |
| 20260504010057 | 73 | 0 | 0.0 | 1.7 | 0.00 | 0.00 | 0.00 | 55 | 1016.3 |
| 20260504004628 | 74 | 0 | 0.0 | 0.0 | 0.00 | 0.00 | 0.00 | 54 | 1016.4 |
| 20260504003100 | 75 | 0 | 0.0 | 0.0 | 0.00 | 0.00 | 0.00 | 51 | 1016.4 |
| 20260504001621 | 75 | 0 | 0.0 | 0.9 | 0.00 | 0.00 | 0.00 | 50 | 1016.4 |
| 20260504000105 | 75 | 0 | 0.0 | 0.9 | 0.00 | 0.00 | 0.00 | 48 | 1016.7 |
| 20260503234605 | 76 | 0 | 0.0 | 1.7 | 0.00 | 0.00 | 0.00 | 46 | 1016.8 |
| 20260503233103 | 75 | 0 | 0.0 | 2.6 | 0.00 | 0.00 | 0.00 | 45 | 1016.7 |
| 20260503231555 | 76 | 0 | 0.0 | 1.7 | 0.00 | 0.00 | 0.00 | 47 | 1017.1 |
| 20260503230111 | 77 | 100 | 0.0 | 2.6 | 0.00 | 0.00 | 0.00 | 45 | 1016.9 |
| 20260503224606 | 77 | 360 | 0.0 | 2.6 | 0.00 | 0.00 | 0.00 | 44 | 1016.9 |
| 20260503223057 | 78 | 99 | 0.9 | 2.6 | 0.00 | 0.00 | 0.00 | 44 | 1017.1 |
| 20260503221604 | 78 | 211 | 0.0 | 2.6 | 0.00 | 0.00 | 0.00 | 43 | 1017.3 |
| 20260503220054 | 78 | 0 | 0.0 | 3.5 | 0.00 | 0.00 | 0.00 | 45 | 1017.4 |
| 20260503214600 | 78 | 135 | 0.0 | 2.6 | 0.00 | 0.00 | 0.00 | 46 | 1017.8 |
| 20260503213057 | 78 | 0 | 0.0 | 5.2 | 0.00 | 0.00 | 0.00 | 47 | 1017.7 |
| 20260503211554 | 79 | 166 | 0.0 | 2.6 | 0.00 | 0.00 | 0.00 | 46 | 1017.9 |
| 20260503210055 | 78 | 0 | 0.0 | 2.6 | 0.00 | 0.00 | 0.00 | 44 | 1018.2 |
| 20260503204554 | 79 | 0 | 0.9 | 2.6 | 0.00 | 0.00 | 0.00 | 44 | 1018.5 |
| 20260503203110 | 79 | 136 | 0.9 | 2.6 | 0.00 | 0.00 | 0.00 | 43 | 1018.6 |
| 20260503201556 | 78 | 0 | 0.9 | 3.5 | 0.00 | 0.00 | 0.00 | 43 | 1019.1 |
| 20260503200105 | 78 | 0 | 0.0 | 2.6 | 0.00 | 0.00 | 0.00 | 44 | 1019.2 |
| 20260503194557 | 79 | 0 | 0.9 | 3.5 | 0.00 | 0.00 | 0.00 | 42 | 1019.5 |
| 20260503193055 | 78 | 0 | 0.0 | 1.7 | 0.00 | 0.00 | 0.00 | 45 | 1019.9 |
| 20260503191556 | 78 | 205 | 0.9 | 2.6 | 0.00 | 0.00 | 0.00 | 47 | 1020.0 |
| 20260503190106 | 78 | 109 | 0.9 | 2.6 | 0.00 | 0.00 | 0.00 | 46 | 1020.4 |
| 20260503184602 | 78 | 0 | 0.0 | 2.6 | 0.00 | 0.00 | 0.00 | 46 | 1020.4 |
| 20260503183057 | 78 | 0 | 0.0 | 1.7 | 0.00 | 0.00 | 0.00 | 46 | 1020.6 |
| 20260503181602 | 77 | 0 | 0.0 | 3.5 | 0.00 | 0.00 | 0.00 | 46 | 1020.9 |
| 20260503180058 | 78 | 250 | 0.0 | 2.6 | 0.00 | 0.00 | 0.00 | 46 | 1021.0 |
| 20260503174554 | 77 | 205 | 0.0 | 2.6 | 0.00 | 0.00 | 0.00 | 51 | 1021.4 |
| 20260503173054 | 77 | 180 | 0.9 | 3.5 | 0.00 | 0.00 | 0.00 | 52 | 1021.7 |
| 20260503171601 | 76 | 199 | 0.0 | 2.6 | 0.00 | 0.00 | 0.00 | 52 | 1022.0 |
| 20260503100108 | 57 | 0 | 0.0 | 0.0 | 0.00 | 0.01 | 0.00 | 81 | 1019.9 |
| 20260503081600 | 59 | 0 | 0.0 | 0.0 | 0.00 | 0.01 | 0.00 | 72 | 1019.9 |
| 20260503071553 | 60 | 0 | 0.0 | 0.0 | 0.00 | 0.01 | 0.00 | 71 | 1020.2 |
| 20260503060116 | 61 | 0 | 0.0 | 0.0 | 0.00 | 0.01 | 0.00 | 70 | 1020.4 |
| 20260503054603 | 61 | 0 | 0.0 | 0.0 | 0.00 | 0.01 | 0.00 | 69 | 1020.3 |
| 20260503053053 | 61 | 0 | 0.0 | 0.0 | 0.00 | 0.01 | 0.00 | 67 | 1020.3 |
| 20260503051552 | 62 | 0 | 0.0 | 0.0 | 0.00 | 0.01 | 0.00 | 70 | 1020.3 |
| 20260503050055 | 62 | 0 | 0.0 | 0.0 | 0.00 | 0.01 | 0.00 | 72 | 1020.2 |
| 20260503044553 | 63 | 0 | 0.0 | 0.0 | 0.00 | 0.01 | 0.01 | 72 | 1020.3 |
| 20260503043053 | 63 | 0 | 0.0 | 0.0 | 0.00 | 0.01 | 0.01 | 70 | 1020.3 |
| 20260503041552 | 63 | 0 | 0.0 | 0.0 | 0.00 | 0.01 | 0.01 | 70 | 1020.1 |